Regional Weather Roundup
Issued by NWS Charleston, WV

Home | Current Version | Previous Version | Text Only | Print | Product List | Glossary Off
Versions: 1 2 3 4 5 6 7 8 9 10 11 12 13 14 15 16 17 18 19 20 21 22 23 24 25 26 27 28 29 30 31 32 33 34 35 36 37 38 39 40 41 42 43 44 45 46 47 48 49 50

000
ASUS41 KRLX 170710
RWRRLX
West Virginia Regional Weather Roundup
National Weather Service Charleston WV
300 AM EDT THU AUG 17 2017

Note: "fair" indicates few or no clouds below 12,000 feet with no
significant weather and/or obstructions to visibility.

WVZ003-170800-
Northern Panhandle of West Virginia

CITY           SKY/WX    TMP DP  RH WIND       PRES   REMARKS
WHEELING       CLEAR     70  62  76 CALM      30.03F
$$

WVZ009-170800-
Northwest West Virginia

CITY           SKY/WX    TMP DP  RH WIND       PRES   REMARKS
PARKERSBURG    PTCLDY    70  68  93 SE3       30.03F FOG
$$

WVZ006-170800-
Western West Virginia

CITY           SKY/WX    TMP DP  RH WIND       PRES   REMARKS
HUNTINGTON     CLEAR     71  69  93 E3        29.99F FOG
$$

WVZ015-170800-
West Central West Virginia

CITY           SKY/WX    TMP DP  RH WIND       PRES   REMARKS
CHARLESTON     PTCLDY    70  69  97 CALM      30.01F FOG
$$

WVZ022-031-170800-
North Central West Virginia

CITY           SKY/WX    TMP DP  RH WIND       PRES   REMARKS
CLARKSBURG     PTCLDY    67  65  93 CALM      30.04S FOG
MORGANTOWN     CLEAR     70  63  78 S3        30.05F
$$

WVZ025-035-042-045-170800-
Southern West Virginia

CITY           SKY/WX    TMP DP  RH WIND       PRES   REMARKS
BECKLEY        CLOUDY    69  62  78 S3        30.11F
LOGAN          FOG       70  68  94 CALM      30.05F VSB 1/2
BLUEFIELD      PTCLDY    68  64  87 W3        30.15F
LEWISBURG      PTCLDY    64  63  96 CALM      30.12S
$$

WVZ047-170800-
Northern Mountains of West Virginia

CITY           SKY/WX    TMP DP  RH WIND       PRES   REMARKS
ELKINS         FOG       62  60  93 CALM      30.11S VSB 1/4
$$

WVZ052-170800-
Eastern Panhandle of West Virginia

CITY           SKY/WX    TMP DP  RH WIND       PRES   REMARKS
MARTINSBURG    NOT AVBL
PETERSBURG     PTCLDY    68  68 100 CALM      30.06S FOG
$$



USA.gov is the U.S. government's official web portal to all federal, state and local government web resources and services.